Location: *
(43.6428°N, 11.5461°E)
Time: 12:59:10
(UTC+00:00)

FALCON 9 DEB - Pass Details

Date: 21 October 2019
Orbit: 430 x 445 km, 53.0° (Epoch: 20 November)

Event Time Altitude Azimuth Distance (km) Brightness Sun altitude
Rises 18:23:09 0° 303° (WNW) 2,421 8.0 -22.7°
Reaches altitude 10° 18:25:17 10° 300° (WNW) 1,552 6.8 -23.1°
Enters shadow 18:28:05 50° 270° (W) 567 4.0 -23.6°
